| time (UTC) | temp F | wind direction | speed knots | gust knots | rain 1hr in | rain 24hr in | rain mn in | humidity % | barometer mb |
| 20260508023031 | 63 | 265 | 0.0 | 0.0 | 0.00 | 0.00 | 0.00 | 84 | 1009.8 |
| 20260508021530 | 63 | 249 | 0.0 | 0.0 | 0.00 | 0.00 | 0.00 | 84 | 1009.7 |
| 20260508020034 | 63 | 176 | 0.0 | 0.0 | 0.00 | 0.00 | 0.00 | 85 | 1009.5 |
| 20260508014532 | 63 | 175 | 0.0 | 0.0 | 0.00 | 0.00 | 0.00 | 84 | 1009.1 |
| 20260508013032 | 63 | 42 | 0.0 | 0.0 | 0.00 | 0.00 | 0.00 | 83 | 1009.0 |
| 20260508011530 | 64 | 42 | 0.0 | 0.0 | 0.00 | 0.00 | 0.00 | 82 | 1009.2 |
| 20260508010023 | 64 | 42 | 0.0 | 0.0 | 0.00 | 0.00 | 0.00 | 79 | 1009.4 |
| 20260508004537 | 64 | 45 | 0.0 | 0.0 | 0.00 | 0.00 | 0.00 | 78 | 1009.8 |
| 20260508003021 | 64 | 45 | 0.0 | 0.0 | 0.00 | 0.00 | 0.00 | 78 | 1009.8 |
| 20260508001530 | 64 | 286 | 0.0 | 0.0 | 0.00 | 0.00 | 0.00 | 78 | 1010.1 |
| 20260508000014 | 64 | 292 | 0.0 | 0.0 | 0.00 | 0.00 | 0.00 | 78 | 1010.7 |
| 20260507234513 | 64 | 260 | 0.0 | 0.0 | 0.00 | 0.00 | 0.00 | 79 | 1010.7 |
| 20260507233012 | 64 | 272 | 0.0 | 0.0 | 0.00 | 0.00 | 0.00 | 79 | 1010.9 |
| 20260507231512 | 64 | 59 | 0.0 | 0.0 | 0.00 | 0.00 | 0.00 | 81 | 1011.0 |
| 20260507230012 | 64 | 59 | 0.0 | 0.0 | 0.00 | 0.00 | 0.00 | 81 | 1011.7 |
| 20260507224513 | 64 | 59 | 0.0 | 0.0 | 0.00 | 0.00 | 0.00 | 82 | 1011.5 |
| 20260507223010 | 65 | 59 | 0.0 | 0.0 | 0.00 | 0.00 | 0.00 | 82 | 1011.7 |
| 20260507221507 | 65 | 59 | 0.0 | 0.9 | 0.00 | 0.00 | 0.00 | 81 | 1011.3 |
| 20260507220004 | 65 | 42 | 0.0 | 0.9 | 0.00 | 0.00 | 0.00 | 80 | 1010.6 |
| 20260507214501 | 65 | 53 | 0.0 | 0.9 | 0.00 | 0.00 | 0.00 | 81 | 1010.6 |
| 20260507213000 | 65 | 44 | 0.0 | 7.8 | 0.00 | 0.00 | 0.00 | 80 | 1010.8 |
| 20260507211501 | 65 | 334 | 4.3 | 8.7 | 0.00 | 0.00 | 0.00 | 80 | 1010.6 |
| 20260507210001 | 65 | 57 | 0.0 | 11.3 | 0.00 | 0.00 | 0.00 | 80 | 1010.6 |
| 20260507204603 | 65 | 53 | 5.2 | 12.2 | 0.00 | 0.00 | 0.00 | 80 | 1010.4 |
| 20260507203132 | 65 | 80 | 4.3 | 8.7 | 0.00 | 0.00 | 0.00 | 80 | 1010.8 |
| 20260507201559 | 65 | 33 | 2.6 | 12.2 | 0.00 | 0.00 | 0.00 | 80 | 1010.9 |
| 20260507194618 | 65 | 40 | 2.6 | 13.9 | 0.00 | 0.00 | 0.00 | 78 | 1010.3 |
| 20260507193101 | 65 | 44 | 4.3 | 9.6 | 0.00 | 0.00 | 0.00 | 79 | 1010.4 |
| 20260507191557 | 65 | 82 | 7.8 | 14.8 | 0.00 | 0.00 | 0.00 | 79 | 1010.1 |
| 20260507184557 | 65 | 42 | 4.3 | 13.0 | 0.00 | 0.00 | 0.00 | 79 | 1010.2 |
| 20260507183057 | 65 | 66 | 7.0 | 13.0 | 0.00 | 0.00 | 0.00 | 79 | 1010.0 |
| 20260507181556 | 65 | 46 | 6.1 | 11.3 | 0.00 | 0.00 | 0.00 | 79 | 1009.7 |
| 20260507180056 | 65 | 58 | 4.3 | 11.3 | 0.00 | 0.00 | 0.00 | 79 | 1009.8 |
| 20260507174601 | 65 | 71 | 7.0 | 16.5 | 0.00 | 0.00 | 0.00 | 79 | 1009.8 |
| 20260507173128 | 65 | 41 | 6.1 | 17.4 | 0.00 | 0.00 | 0.00 | 78 | 1009.4 |
| 20260507171554 | 66 | 25 | 5.2 | 13.0 | 0.00 | 0.00 | 0.00 | 78 | 1009.7 |
| 20260507170052 | 65 | 71 | 6.1 | 16.5 | 0.00 | 0.00 | 0.00 | 78 | 1009.8 |
| 20260507164552 | 65 | 9 | 7.0 | 14.8 | 0.00 | 0.00 | 0.00 | 78 | 1010.3 |
| 20260507163051 | 65 | 76 | 7.0 | 17.4 | 0.00 | 0.00 | 0.00 | 78 | 1010.0 |
| 20260507161554 | 65 | 28 | 8.7 | 18.2 | 0.00 | 0.00 | 0.00 | 78 | 1009.6 |
| 20260507160058 | 66 | 65 | 6.1 | 16.5 | 0.00 | 0.00 | 0.00 | 77 | 1009.7 |
| 20260507154549 | 65 | 57 | 13.0 | 20.9 | 0.00 | 0.00 | 0.00 | 77 | 1009.8 |
| 20260507153053 | 66 | 44 | 8.7 | 15.6 | 0.00 | 0.00 | 0.00 | 77 | 1010.0 |
| 20260507151547 | 66 | 69 | 7.8 | 18.2 | 0.00 | 0.00 | 0.00 | 76 | 1010.1 |
| 20260507150048 | 66 | 26 | 7.0 | 18.2 | 0.00 | 0.00 | 0.00 | 76 | 1010.1 |
| 20260507144550 | 66 | 40 | 8.7 | 18.2 | 0.00 | 0.00 | 0.00 | 75 | 1010.0 |
| 20260507143057 | 66 | 72 | 9.6 | 16.5 | 0.00 | 0.00 | 0.00 | 75 | 1009.9 |
| 20260507141555 | 66 | 30 | 7.8 | 18.2 | 0.00 | 0.00 | 0.00 | 75 | 1010.5 |
| 20260507140044 | 66 | 33 | 12.2 | 21.7 | 0.00 | 0.00 | 0.00 | 75 | 1010.3 |
| 20260507134546 | 66 | 51 | 7.8 | 21.7 | 0.00 | 0.00 | 0.00 | 73 | 1010.7 |
| 20260507133109 | 67 | 44 | 13.0 | 24.3 | 0.00 | 0.00 | 0.00 | 73 | 1010.7 |
| 20260507131546 | 67 | 78 | 11.3 | 22.6 | 0.00 | 0.00 | 0.00 | 70 | 1010.5 |
| 20260507130053 | 67 | 51 | 12.2 | 24.3 | 0.00 | 0.00 | 0.00 | 71 | 1011.2 |
| 20260507124542 | 67 | 57 | 13.9 | 22.6 | 0.00 | 0.00 | 0.00 | 70 | 1011.3 |
| 20260507123041 | 68 | 34 | 13.9 | 26.9 | 0.00 | 0.00 | 0.00 | 69 | 1011.2 |
| 20260507121541 | 69 | 20 | 9.6 | 20.9 | 0.00 | 0.00 | 0.00 | 67 | 1011.4 |
| 20260507120038 | 69 | 35 | 13.0 | 27.8 | 0.00 | 0.00 | 0.00 | 67 | 1011.5 |
| 20260507114547 | 68 | 63 | 14.8 | 26.1 | 0.00 | 0.00 | 0.00 | 68 | 1011.6 |
| 20260507113037 | 68 | 29 | 13.0 | 22.6 | 0.00 | 0.00 | 0.00 | 67 | 1011.2 |
| 20260507111534 | 69 | 53 | 11.3 | 24.3 | 0.00 | 0.00 | 0.00 | 67 | 1011.9 |
| 20260507110040 | 69 | 46 | 12.2 | 27.8 | 0.00 | 0.00 | 0.00 | 66 | 1012.2 |
| 20260507104533 | 68 | 49 | 12.2 | 23.5 | 0.00 | 0.00 | 0.00 | 66 | 1012.3 |
| 20260507103038 | 69 | 37 | 11.3 | 27.8 | 0.00 | 0.00 | 0.00 | 65 | 1012.6 |
| 20260507101537 | 68 | 40 | 16.5 | 26.1 | 0.00 | 0.00 | 0.00 | 65 | 1012.4 |
| 20260507100035 | 68 | 36 | 13.0 | 21.7 | 0.00 | 0.00 | 0.00 | 64 | 1012.5 |
| 20260507094536 | 69 | 49 | 9.6 | 23.5 | 0.00 | 0.00 | 0.00 | 62 | 1012.6 |
| 20260507093028 | 68 | 28 | 13.0 | 26.9 | 0.00 | 0.00 | 0.00 | 62 | 1012.7 |
| 20260507091532 | 68 | 65 | 12.2 | 23.5 | 0.00 | 0.00 | 0.00 | 65 | 1012.8 |
| 20260507090025 | 67 | 66 | 13.0 | 20.9 | 0.00 | 0.00 | 0.00 | 67 | 1012.9 |
| 20260507084522 | 67 | 52 | 8.7 | 25.2 | 0.00 | 0.00 | 0.00 | 69 | 1012.7 |
| 20260507083022 | 66 | 64 | 13.9 | 25.2 | 0.00 | 0.00 | 0.00 | 71 | 1012.7 |
| 20260507081523 | 67 | 63 | 11.3 | 23.5 | 0.00 | 0.00 | 0.00 | 70 | 1012.3 |
| 20260507080020 | 66 | 57 | 13.9 | 23.5 | 0.00 | 0.00 | 0.00 | 70 | 1012.3 |
| 20260507074518 | 66 | 42 | 11.3 | 23.5 | 0.00 | 0.00 | 0.00 | 73 | 1012.6 |
| 20260507073017 | 66 | 46 | 11.3 | 22.6 | 0.00 | 0.00 | 0.00 | 73 | 1012.6 |
| 20260507071519 | 66 | 21 | 10.4 | 21.7 | 0.00 | 0.00 | 0.00 | 74 | 1012.8 |
| 20260507070026 | 66 | 74 | 8.7 | 18.2 | 0.00 | 0.00 | 0.00 | 74 | 1012.8 |
| 20260507064515 | 65 | 76 | 8.7 | 17.4 | 0.00 | 0.00 | 0.00 | 76 | 1013.0 |
| 20260507063011 | 64 | 60 | 11.3 | 18.2 | 0.00 | 0.00 | 0.00 | 81 | 1013.0 |
| 20260507061509 | 64 | 30 | 9.6 | 17.4 | 0.00 | 0.00 | 0.00 | 84 | 1012.9 |
| 20260507060012 | 63 | 28 | 8.7 | 20.0 | 0.00 | 0.00 | 0.00 | 85 | 1013.1 |
| 20260507054505 | 63 | 66 | 10.4 | 17.4 | 0.00 | 0.00 | 0.00 | 85 | 1013.2 |
| 20260507053005 | 63 | 66 | 7.0 | 16.5 | 0.00 | 0.00 | 0.00 | 85 | 1013.1 |
| 20260507051503 | 63 | 68 | 7.0 | 12.2 | 0.00 | 0.00 | 0.00 | 85 | 1013.1 |
| 20260507050006 | 63 | 32 | 7.0 | 13.9 | 0.00 | 0.00 | 0.00 | 85 | 1013.0 |
| 20260507044628 | 62 | 41 | 10.4 | 15.6 | 0.00 | 0.00 | 0.00 | 84 | 1012.8 |
| 20260507043059 | 62 | 53 | 7.8 | 17.4 | 0.00 | 0.00 | 0.00 | 85 | 1012.6 |
| 20260507041557 | 62 | 44 | 8.7 | 14.8 | 0.00 | 0.00 | 0.00 | 84 | 1012.8 |
| 20260507040058 | 63 | 59 | 6.1 | 13.0 | 0.00 | 0.00 | 0.00 | 81 | 1012.7 |
| 20260507034554 | 63 | 58 | 3.5 | 9.6 | 0.00 | 0.00 | 0.00 | 80 | 1013.0 |
| 20260507033102 | 63 | 40 | 3.5 | 7.8 | 0.00 | 0.00 | 0.00 | 80 | 1013.2 |
| 20260507031558 | 63 | 75 | 0.0 | 0.9 | 0.00 | 0.00 | 0.00 | 79 | 1013.2 |
| 20260507030106 | 64 | 49 | 0.0 | 0.9 | 0.00 | 0.00 | 0.00 | 74 | 1013.3 |
| 20260507024606 | 64 | 82 | 0.0 | 11.3 | 0.00 | 0.00 | 0.00 | 74 | 1013.1 |